This demonstration page uses our WeatherBlox Daily Observations layout. Learn more.

Left ArrowRight Arrow

Hourly Observations for September 1, 2020

Temp ( °F °C ) Dew Point ( °F °C ) Humidity (%) Winds ( mph kmh ) Pressure ( in mb ) Visibility ( mi km ) Precip ( " mm )
12:52 am 00:52 Partly Cloudy 56 13.3 49 9.4 77 77 NNW 7 11 29.93 1013 10 16 0.00 0.00
1:52 am 01:52 Cloudy 59 15 50 10 72 72 NNW 7 11 29.91 1013 10 16 0.00 0.00
2:52 am 02:52 Cloudy 58 14.4 49 9.4 72 72 NNW 6 9 29.88 1012 10 16 0.00 0.00
3:52 am 03:52 Cloudy 61 16.1 50 10 67 67 VRB 3 6 29.87 1012 10 16 0.00 0.00
4:52 am 04:52 Cloudy 65 18.3 48 8.9 54 54 E 8 13 29.87 1012 10 16 0.00 0.00
5:52 am 05:52 Cloudy 65 18.3 48 8.9 54 54 E 10 17 29.86 1011 10 16 0.00 0.00
6:52 am 06:52 Mostly Cloudy 64 17.8 49 9.4 58 58 E 3 6 29.87 1012 10 16 0.00 0.00
7:52 am 07:52 Partly Cloudy 63 17.2 51 10.6 65 65 N 5 7 29.86 1011 10 16 0.00 0.00
8:52 am 08:52 Mostly Cloudy 65 18.3 52 11.1 63 63 N 3 6 29.87 1012 10 16 0.00 0.00
9:52 am 09:52 Mostly Cloudy 66 18.9 50 10 56 56 VRB 3 6 29.86 1011 10 16 0.00 0.00
10:52 am 10:52 Mostly Cloudy 67 19.4 51 10.6 57 57 ESE 13 20 29.85 1011 10 16 0.00 0.00
11:26 am 11:26 Mostly Cloudy 64 17.8 55 12.8 73 73 SE 10 17 29.85 1011 10 16 0.00 0.00
11:52 am 11:52 Mostly Cloudy 64 17.8 56 13.3 75 75 E 9 15 29.85 1011 10 16 0.00 0.00
12:32 pm 12:32 Mostly Cloudy 66 18.9 59 15 78 78 SE 10 17 29.82 1010 10 16 0.00 0.00
12:52 pm 12:52 Mostly Cloudy 67 19.4 60 15.6 79 79 SE 9 15 29.81 1010 10 16 0.00 0.00
1:19 pm 13:19 Cloudy 69 20.6 60 15.6 73 73 SE 8 13 29.79 1009 10 16 0.00 0.00
1:52 pm 13:52 Cloudy 69 20.6 60 15.6 73 73 SSW 7 11 29.82 1010 10 16 0.00 0.00
2:52 pm 14:52 Cloudy 69 20.6 61 16.1 76 76 SSE 9 15 29.79 1009 10 16 0.00 0.00
3:52 pm 15:52 Cloudy 71 21.7 61 16.1 71 71 S 6 9 29.78 1009 10 16 0.00 0.00
4:12 pm 16:12 Partly Cloudy 72 22.2 61 16.1 68 68 SSE 9 15 29.76 1008 10 16 0.00 0.00
4:52 pm 16:52 Partly Cloudy 72 22.2 61 16.1 68 68 S 8 13 29.75 1008 10 16 0.00 0.00
5:52 pm 17:52 Mostly Sunny 74 23.3 62 16.7 67 67 SSE 6 9 29.74 1007 10 16 0.00 0.00
6:52 pm 18:52 Mostly Sunny 74 23.3 62 16.7 67 67 SSE 8 13 29.75 1007 10 16 0.00 0.00
7:52 pm 19:52 Sunny 71 21.7 63 17.2 76 76 SSE 8 13 29.75 1008 10 16 0.00 0.00
8:52 pm 20:52 Clear 70 21.1 63 17.2 79 79 S 10 17 29.78 1008 10 16 0.00 0.00
9:52 pm 21:52 Clear 67 19.4 63 17.2 87 87 SSE 9 15 29.80 1009 10 16 0.00 0.00
10:52 pm 22:52 Clear 66 18.9 63 17.2 90 90 SSE 7 11 29.81 1010 10 16 0.00 0.00
11:52 pm 23:52 Clear 64 17.8 62 16.7 93 93 SSE 7 11 29.81 1010 10 16 0.00 0.00

Powered by AerisWeather